Weather in Yaroslavsky

Russia / Primorsky Krai     44°11′07″N   132°13′30″E
temp.,
°C
wind,
m/s
gust,
m/s
humid.,
%
clouds,
%
prec.,
mm/h
press.,
hPa
HPBL,
m
24 may, tue
tue2401:00+12ssw71786100 1.1 1009541
04:00+12ssw81789100 2.6 1009553
07:00+12ssw8169067 2.1 1009488
10:00+17ssw9137981 2.1 1009585
13:00+22ssw9116342 0.0 1007662
16:00+24ssw71058100 0.1 1005576
19:00+17s61390100 14.0 1008507
22:00+15nw1195100 14.8 100913
25 may, wed
wed2501:00+14w3598100 1.4 1010149
04:00+14wnw2299100 4.6 100856
07:00+12nne3598100 0.0 1009182
10:00+14nnw5594100 0.0 1009346
13:00+15nne5684100 0.0 1008448
16:00+18nne667575 0.0 1006583
19:00+16n6117996 0.0 1006428
22:00+13nne51291100 0.3 1007296
26 may, thu
thu2601:00+11n479760 0.1 1006171
04:00+10n2298100 0.3 100661
07:00+11nne2295100 0.0 1006126
10:00+16n2281100 0.0 1006439
13:00+21nne3367100 0.3 1004647
16:00+18wsw5582100 2.9 1003481
19:00+15s21093100 1.4 1003427
22:00+13sw349666 1.7 1003107
27 may, fri
fri2701:00+12sw129796 0.2 100324
04:00+12ssw1195100 0.2 100342
07:00+12wsw129597 0.2 100394
10:00+16wsw1179100 0.4 1002419
13:00+20nnw0155100 0.1 10001425
16:00+21nne3252100 0.1 9981373
19:00+18ne4670100 0.0 997337
22:00+14nne237137 0.1 99842
28 may, sat
sat2801:00+11sw4694100 0.0 998154
04:00+10ssw349891 0.0 99999
07:00+11ssw3494100 0.0 1000187
10:00+17ssw337240 0.0 1000577
13:00+21wsw245643 0.0 10001280
16:00+24sw345026 0.0 9991501
19:00+22ssw466577 0.0 999312
22:00+15s3677100 0.0 1002118